Weather History for Monroe, NC

Change the Weather History Date:

Saturday, December 7, 2013

  Actual Average (KCLT) Record (KCLT)
Temperature  
Mean Temperature 58 °F 44 °F  
Max Temperature 69 °F 55 °F 76 °F (1998)
Min Temperature 46 °F 33 °F 12 °F (2010)
Degree Days  
Heating Degree Days 8 21  
Month to date heating degree days 140  
Since 1 July heating degree days 776  
Cooling Degree Days 0 0  
Month to date cooling degree days 0  
Year to date cooling degree days 1517  
Growing Degree Days 8 (Base 50)    
Moisture  
Dew Point 49 °F    
Average Humidity 83    
Maximum Humidity 96    
Minimum Humidity 71    
Precipitation  
Precipitation 0.00 in 0.10 in 1.56 in (1890)
Month to date precipitation 0.76  
Year to date precipitation 39.14  
Snow  
Snow 0.00 in 0.00 in T in (1968)
Month to date snowfall 0.0  
Since 1 July snowfall 0.1  
Snow Depth -    
Sea Level Pressure  
Sea Level Pressure 30.24 in    
Wind  
Wind Speed 12 mph (NE)    
Max Wind Speed 21 mph    
Max Gust Speed 31 mph    
Visibility 9 miles    
Events Rain    
T = Trace of Precipitation, MM = Missing Value Source: NWS Daily Summary

Daily Weather History Graph

Daily Weather History Graph

Search for Another Location

Airport:

Trip Planner

Search our weather history database for the weather conditions in past years. The results will help you decide how hot, cold, wet, or windy it might be!

Date:

Astronomy

Dec. 07, 2013 Rise Set
Actual Time 7:17 AM EST 5:10 PM EST
Civil Twilight 6:49 AM EST 5:38 PM EST
Nautical Twilight 6:17 AM EST 6:10 PM EST
Astronomical Twilight 5:47 AM EST 6:40 PM EST
Moon 11:09 AM EST (12/7) 10:41 PM EST (12/7)
Length of Visible Light 10h 49m
Length of Day
9h 53m
Waxing Crescent, 29% of the Moon is Illuminated
Dec 7
Waxing Crescent
Dec 9
First Quarter
Dec 17
Full
Dec 25
Last Quarter
Jan 1
New

Hourly Weather History & Observations

Time (EST) Temp. Windchill Dew Point Humidity Pressure Visibility Wind Dir Wind Speed Gust Speed Precip Events Conditions
12:53 AM 69.1 °F - 62.1 °F 78% 30.02 in 10.0 mi SSW 8.1 mph - N/A   Mostly Cloudy
1:53 AM 69.1 °F - 62.1 °F 78% 30.03 in 10.0 mi SSW 10.4 mph 18.4 mph N/A   Overcast
2:11 AM 68.0 °F - 62.6 °F 83% 30.03 in 10.0 mi SW 13.8 mph - 0.00 in Rain Light Rain
2:53 AM 68.0 °F - 63.0 °F 84% 30.03 in 10.0 mi SSW 11.5 mph 17.3 mph 0.00 in   Overcast
3:53 AM 66.9 °F - 63.0 °F 87% 30.04 in 10.0 mi SSW 8.1 mph - N/A   Mostly Cloudy
4:53 AM 66.9 °F - 63.0 °F 87% 30.04 in 10.0 mi SW 10.4 mph - N/A   Scattered Clouds
5:53 AM 66.0 °F - 64.0 °F 93% 30.08 in 10.0 mi West 5.8 mph - 0.00 in Rain Light Rain
6:53 AM 66.0 °F - 64.0 °F 93% 30.12 in 10.0 mi Calm Calm - 0.00 in   Overcast
7:06 AM 66.2 °F - 64.4 °F 94% 30.12 in 7.0 mi NW 3.5 mph - 0.00 in Rain Light Rain
7:32 AM 60.8 °F - 57.2 °F 88% 30.14 in 3.0 mi NNE 20.7 mph 29.9 mph 0.00 in Rain Light Rain
7:40 AM 53.6 °F - 51.8 °F 94% 30.15 in 4.0 mi NNE 18.4 mph 31.1 mph 0.00 in Rain Light Rain
7:53 AM 53.1 °F - 52.0 °F 96% 30.20 in 4.0 mi NE 17.3 mph - 0.00 in   Overcast
8:13 AM 51.8 °F - 50.0 °F 94% 30.19 in 2.0 mi NNE 20.7 mph - 0.00 in Rain Light Rain
8:37 AM 51.8 °F - 48.2 °F 88% 30.22 in 1.8 mi NNE 13.8 mph - 0.00 in   Overcast
8:45 AM 51.8 °F - 48.2 °F 88% 30.22 in 2.5 mi NE 15.0 mph - 0.00 in   Overcast
8:53 AM 50.0 °F - 48.9 °F 96% 30.25 in 4.0 mi NE 16.1 mph - 0.00 in   Overcast
9:26 AM 50.0 °F - 48.2 °F 94% 30.25 in 10.0 mi NE 10.4 mph 21.9 mph N/A   Overcast
9:33 AM 50.0 °F - 48.2 °F 94% 30.25 in 10.0 mi NE 10.4 mph 20.7 mph N/A   Overcast
9:53 AM 50.0 °F - 46.0 °F 86% 30.28 in 10.0 mi NE 18.4 mph 24.2 mph N/A   Overcast
10:19 AM 50.0 °F - 46.4 °F 87% 30.27 in 10.0 mi NE 11.5 mph - N/A   Overcast
10:50 AM 50.0 °F - 46.4 °F 87% 30.28 in 10.0 mi NE 18.4 mph 25.3 mph N/A   Overcast
10:53 AM 50.0 °F - 45.0 °F 83% 30.30 in 10.0 mi NE 17.3 mph 24.2 mph N/A   Overcast
11:53 AM 50.0 °F - 45.0 °F 83% 30.30 in 10.0 mi NE 17.3 mph 23.0 mph N/A   Overcast
12:02 PM 50.0 °F - 44.6 °F 82% 30.28 in 10.0 mi NE 17.3 mph 26.5 mph N/A   Overcast
12:32 PM 51.8 °F - 44.6 °F 76% 30.28 in 10.0 mi NE 13.8 mph 19.6 mph N/A   Overcast
12:42 PM 50.0 °F - 44.6 °F 82% 30.28 in 10.0 mi NE 13.8 mph 19.6 mph N/A   Overcast
12:53 PM 50.0 °F - 44.1 °F 80% 30.30 in 10.0 mi ENE 10.4 mph - N/A   Overcast
1:01 PM 50.0 °F - 44.6 °F 82% 30.27 in 10.0 mi NE 16.1 mph 19.6 mph N/A   Overcast
1:53 PM 50.0 °F - 44.1 °F 80% 30.30 in 10.0 mi NE 9.2 mph - N/A   Overcast
2:18 PM 51.8 °F - 42.8 °F 71% 30.27 in 10.0 mi NE 12.7 mph - N/A   Overcast
2:53 PM 50.0 °F - 42.1 °F 74% 30.30 in 10.0 mi NE 11.5 mph - N/A   Overcast
3:53 PM 50.0 °F - 41.0 °F 71% 30.31 in 10.0 mi NE 16.1 mph 21.9 mph N/A   Overcast
4:53 PM 50.0 °F - 41.0 °F 71% 30.33 in 10.0 mi ENE 9.2 mph - N/A   Overcast
5:53 PM 48.9 °F - 41.0 °F 74% 30.35 in 10.0 mi ENE 10.4 mph 18.4 mph N/A   Overcast
6:53 PM 48.9 °F - 41.0 °F 74% 30.38 in 10.0 mi ENE 8.1 mph - N/A   Overcast
7:53 PM 48.0 °F - 39.0 °F 71% 30.41 in 10.0 mi ENE 11.5 mph 16.1 mph N/A   Overcast
8:53 PM 48.0 °F - 39.9 °F 74% 30.41 in 10.0 mi ENE 6.9 mph 17.3 mph N/A   Overcast
9:53 PM 46.9 °F - 39.0 °F 74% 30.43 in 10.0 mi ENE 11.5 mph 16.1 mph N/A   Overcast
10:53 PM 46.9 °F - 37.9 °F 71% 30.45 in 10.0 mi NE 10.4 mph 17.3 mph N/A   Overcast
11:53 PM 46.0 °F 41.0 °F 37.0 °F 71% 30.45 in 10.0 mi NE 10.4 mph 17.3 mph N/A   Overcast